Year,Month,Day,Hour,Minute,Value (Times are PST for temperature in C)
2024,03,30,00,00,3.60
2024,03,30,00,01,3.60
2024,03,30,00,02,3.50
2024,03,30,00,03,3.50
2024,03,30,00,04,3.50
2024,03,30,00,05,3.50
2024,03,30,00,06,3.50
2024,03,30,00,07,3.50
2024,03,30,00,08,3.50
2024,03,30,00,09,3.40
2024,03,30,00,10,3.40
2024,03,30,00,11,3.40
2024,03,30,00,12,3.40
2024,03,30,00,13,3.40
2024,03,30,00,14,3.40
2024,03,30,00,15,3.40
2024,03,30,00,16,3.40
2024,03,30,00,17,3.40
2024,03,30,00,18,3.40
2024,03,30,00,19,3.40
2024,03,30,00,20,3.40
2024,03,30,00,21,3.40
2024,03,30,00,22,3.40
2024,03,30,00,23,3.30
2024,03,30,00,24,3.30
2024,03,30,00,25,3.30
2024,03,30,00,26,3.30
2024,03,30,00,27,3.30
2024,03,30,00,28,3.30
2024,03,30,00,29,3.30
2024,03,30,00,30,3.20
2024,03,30,00,31,3.20
2024,03,30,00,32,3.20
2024,03,30,00,33,3.20
2024,03,30,00,34,3.20
2024,03,30,00,35,3.20
2024,03,30,00,36,3.20
2024,03,30,00,37,3.20
2024,03,30,00,38,3.20
2024,03,30,00,39,3.20
2024,03,30,00,40,3.20
2024,03,30,00,41,3.20
2024,03,30,00,42,3.20
2024,03,30,00,43,3.20
2024,03,30,00,44,3.20
2024,03,30,00,45,3.20
2024,03,30,00,46,3.20
2024,03,30,00,47,3.20
2024,03,30,00,48,3.20
2024,03,30,00,49,3.20
2024,03,30,00,50,3.20
2024,03,30,00,51,3.20
2024,03,30,00,52,3.20
2024,03,30,00,53,3.20
2024,03,30,00,54,3.20
2024,03,30,00,55,3.20
2024,03,30,00,56,3.20
2024,03,30,00,57,3.20
2024,03,30,00,58,3.20
2024,03,30,00,59,3.20
2024,03,30,01,00,3.20
2024,03,30,01,01,3.20
2024,03,30,01,02,3.20
2024,03,30,01,03,3.20
2024,03,30,01,04,3.20
2024,03,30,01,05,3.20
2024,03,30,01,06,3.20
2024,03,30,01,07,3.20
2024,03,30,01,08,3.20
2024,03,30,01,09,3.20
2024,03,30,01,10,3.20
2024,03,30,01,11,3.20
2024,03,30,01,12,3.20
2024,03,30,01,13,3.20
2024,03,30,01,14,3.20
2024,03,30,01,15,3.20
2024,03,30,01,16,3.20
2024,03,30,01,17,3.20
2024,03,30,01,18,3.20
2024,03,30,01,19,3.20
2024,03,30,01,20,3.20
2024,03,30,01,21,3.20
2024,03,30,01,22,3.20
2024,03,30,01,23,3.20
2024,03,30,01,24,3.20
2024,03,30,01,25,3.20
2024,03,30,01,26,3.20
2024,03,30,01,27,3.20
2024,03,30,01,28,3.20
2024,03,30,01,29,3.20
2024,03,30,01,30,3.20
2024,03,30,01,31,3.20
2024,03,30,01,32,3.20
2024,03,30,01,33,3.10
2024,03,30,01,34,3.10
2024,03,30,01,35,3.10
2024,03,30,01,36,3.10
2024,03,30,01,37,3.10
2024,03,30,01,38,3.10
2024,03,30,01,39,3.10
2024,03,30,01,40,3.10
2024,03,30,01,41,3.10
2024,03,30,01,42,3.10
2024,03,30,01,43,3.10
2024,03,30,01,44,3.10
2024,03,30,01,45,3.10
2024,03,30,01,46,3.10
2024,03,30,01,47,3.10
2024,03,30,01,48,3.10
2024,03,30,01,49,3.10
2024,03,30,01,50,3.10
2024,03,30,01,51,3.10
2024,03,30,01,52,3.00
2024,03,30,01,53,3.00
2024,03,30,01,54,3.00
2024,03,30,01,55,3.00
2024,03,30,01,56,3.00
2024,03,30,01,57,3.00
2024,03,30,01,58,3.00
2024,03,30,01,59,3.00
2024,03,30,02,00,2.90
2024,03,30,02,01,2.90
2024,03,30,02,02,2.90
2024,03,30,02,03,2.90
2024,03,30,02,04,2.90
2024,03,30,02,05,2.90
2024,03,30,02,06,2.90
2024,03,30,02,07,2.90
2024,03,30,02,08,2.90
2024,03,30,02,09,2.90
2024,03,30,02,10,2.90
2024,03,30,02,11,2.90
2024,03,30,02,12,2.90
2024,03,30,02,13,2.90
2024,03,30,02,14,2.90
2024,03,30,02,15,2.80
2024,03,30,02,16,2.80
2024,03,30,02,17,2.80
2024,03,30,02,18,2.80
2024,03,30,02,19,2.80
2024,03,30,02,20,2.80
2024,03,30,02,21,2.80
2024,03,30,02,22,2.80
2024,03,30,02,23,2.80
2024,03,30,02,24,2.80
2024,03,30,02,25,2.80
2024,03,30,02,26,2.80
2024,03,30,02,27,2.80
2024,03,30,02,28,2.80
2024,03,30,02,29,2.80
2024,03,30,02,30,2.80
2024,03,30,02,31,2.80
2024,03,30,02,32,2.80
2024,03,30,02,33,2.80
2024,03,30,02,34,2.80
2024,03,30,02,35,2.80
2024,03,30,02,36,2.80
2024,03,30,02,37,2.80
2024,03,30,02,38,2.80
2024,03,30,02,39,2.80
2024,03,30,02,40,2.80
2024,03,30,02,41,2.80
2024,03,30,02,42,2.80
2024,03,30,02,43,2.70
2024,03,30,02,44,2.70
2024,03,30,02,45,2.70
2024,03,30,02,46,2.70
2024,03,30,02,47,2.70
2024,03,30,02,48,2.70
2024,03,30,02,49,2.70
2024,03,30,02,50,2.70
2024,03,30,02,51,2.70
2024,03,30,02,52,2.70
2024,03,30,02,53,2.70
2024,03,30,02,54,2.70
2024,03,30,02,55,2.70
2024,03,30,02,56,2.70
2024,03,30,02,57,2.70
2024,03,30,02,58,2.70
2024,03,30,02,59,2.70
2024,03,30,03,00,2.60
2024,03,30,03,01,2.70
2024,03,30,03,02,2.70
2024,03,30,03,03,2.60
2024,03,30,03,04,2.60
2024,03,30,03,05,2.60
2024,03,30,03,06,2.60
2024,03,30,03,07,2.60
2024,03,30,03,08,2.60
2024,03,30,03,09,2.60
2024,03,30,03,10,2.60
2024,03,30,03,11,2.60
2024,03,30,03,12,2.60
2024,03,30,03,13,2.60
2024,03,30,03,14,2.60
2024,03,30,03,15,2.60
2024,03,30,03,16,2.60
2024,03,30,03,17,2.60
2024,03,30,03,18,2.60
2024,03,30,03,19,2.60
2024,03,30,03,20,2.60
2024,03,30,03,21,2.60
2024,03,30,03,22,2.60
2024,03,30,03,23,2.50
2024,03,30,03,24,2.50
2024,03,30,03,25,2.50
2024,03,30,03,26,2.50
2024,03,30,03,27,2.50
2024,03,30,03,28,2.50
2024,03,30,03,29,2.50
2024,03,30,03,30,2.50
2024,03,30,03,31,2.40
2024,03,30,03,32,2.40
2024,03,30,03,33,2.40
2024,03,30,03,34,2.40
2024,03,30,03,35,2.40
2024,03,30,03,36,2.40
2024,03,30,03,37,2.40
2024,03,30,03,38,2.40
2024,03,30,03,39,2.40
2024,03,30,03,40,2.40
2024,03,30,03,41,2.40
2024,03,30,03,42,2.40
2024,03,30,03,43,2.40
2024,03,30,03,44,2.40
2024,03,30,03,45,2.40
2024,03,30,03,46,2.40
2024,03,30,03,47,2.40
2024,03,30,03,48,2.40
2024,03,30,03,49,2.30
2024,03,30,03,50,2.30
2024,03,30,03,51,2.30
2024,03,30,03,52,2.30
2024,03,30,03,53,2.30
2024,03,30,03,54,2.30
2024,03,30,03,55,2.30
2024,03,30,03,56,2.30
2024,03,30,03,57,2.30
2024,03,30,03,58,2.30
2024,03,30,03,59,2.30
2024,03,30,04,00,2.30
2024,03,30,04,01,2.30
2024,03,30,04,02,2.30
2024,03,30,04,03,2.30
2024,03,30,04,04,2.20
2024,03,30,04,05,2.20
2024,03,30,04,06,2.20
2024,03,30,04,07,2.20
2024,03,30,04,08,2.20
2024,03,30,04,09,2.20
2024,03,30,04,10,2.20
2024,03,30,04,11,2.20
2024,03,30,04,12,2.20
2024,03,30,04,13,2.10
2024,03,30,04,14,2.10
2024,03,30,04,15,2.10
2024,03,30,04,16,2.10
2024,03,30,04,17,2.10
2024,03,30,04,18,2.10
2024,03,30,04,19,2.00
2024,03,30,04,20,2.00
2024,03,30,04,21,2.00
2024,03,30,04,22,2.00
2024,03,30,04,23,1.90
2024,03,30,04,24,1.90
2024,03,30,04,25,1.90
2024,03,30,04,26,1.90
2024,03,30,04,27,1.90
2024,03,30,04,28,1.90
2024,03,30,04,29,1.90
2024,03,30,04,30,1.90
2024,03,30,04,31,1.90
2024,03,30,04,32,1.90
2024,03,30,04,33,1.80
2024,03,30,04,34,1.80
2024,03,30,04,35,1.80
2024,03,30,04,36,1.80
2024,03,30,04,37,1.80
2024,03,30,04,38,1.80
2024,03,30,04,39,1.70
2024,03,30,04,40,1.70
2024,03,30,04,41,1.70
2024,03,30,04,42,1.70
2024,03,30,04,43,1.70
2024,03,30,04,44,1.70
2024,03,30,04,45,1.70
2024,03,30,04,46,1.60
2024,03,30,04,47,1.60
2024,03,30,04,48,1.60
2024,03,30,04,49,1.60
2024,03,30,04,50,1.60
2024,03,30,04,51,1.60
2024,03,30,04,52,1.60
2024,03,30,04,53,1.60
2024,03,30,04,54,1.60
2024,03,30,04,55,1.60
2024,03,30,04,56,1.60
2024,03,30,04,57,1.60
2024,03,30,04,58,1.60
2024,03,30,04,59,1.60
2024,03,30,05,00,1.70
2024,03,30,05,01,1.70
2024,03,30,05,02,1.70
2024,03,30,05,03,1.70
2024,03,30,05,04,1.70
2024,03,30,05,05,1.70
2024,03,30,05,06,1.70
2024,03,30,05,07,1.70
2024,03,30,05,08,1.70
2024,03,30,05,09,1.70
2024,03,30,05,10,1.70
2024,03,30,05,11,1.60
2024,03,30,05,12,1.60
2024,03,30,05,13,1.60
2024,03,30,05,14,1.60
2024,03,30,05,15,1.60
2024,03,30,05,16,1.60
2024,03,30,05,17,1.60
2024,03,30,05,18,1.60
2024,03,30,05,19,1.60
2024,03,30,05,20,1.60
2024,03,30,05,21,1.50
2024,03,30,05,22,1.50
2024,03,30,05,23,1.50
2024,03,30,05,24,1.50
2024,03,30,05,25,1.50
2024,03,30,05,26,1.50
2024,03,30,05,27,1.50
2024,03,30,05,28,1.50
2024,03,30,05,29,1.50
2024,03,30,05,30,1.50
2024,03,30,05,31,1.40
2024,03,30,05,32,1.40
2024,03,30,05,33,1.40
2024,03,30,05,34,1.40
2024,03,30,05,35,1.40
2024,03,30,05,36,1.40
2024,03,30,05,37,1.40
2024,03,30,05,38,1.40
2024,03,30,05,39,1.40
2024,03,30,05,40,1.40
2024,03,30,05,41,1.40
2024,03,30,05,42,1.40
2024,03,30,05,43,1.40
2024,03,30,05,44,1.40
2024,03,30,05,45,1.40
2024,03,30,05,46,1.40
2024,03,30,05,47,1.30
2024,03,30,05,48,1.30
2024,03,30,05,49,1.30
2024,03,30,05,50,1.30
2024,03,30,05,51,1.30
2024,03,30,05,52,1.30
2024,03,30,05,53,1.30
2024,03,30,05,54,1.30
2024,03,30,05,55,1.30
2024,03,30,05,56,1.30
2024,03,30,05,57,1.30
2024,03,30,05,58,1.30
2024,03,30,05,59,1.30
2024,03,30,06,00,1.30
2024,03,30,06,01,1.30
2024,03,30,06,02,1.20
2024,03,30,06,03,1.20
2024,03,30,06,04,1.20
2024,03,30,06,05,1.20
2024,03,30,06,06,1.20
2024,03,30,06,07,1.20
2024,03,30,06,08,1.20
2024,03,30,06,09,1.30
2024,03,30,06,10,1.30
2024,03,30,06,11,1.30
2024,03,30,06,12,1.30
2024,03,30,06,13,1.30
2024,03,30,06,14,1.30
2024,03,30,06,15,1.30
2024,03,30,06,16,1.30
2024,03,30,06,17,1.30
2024,03,30,06,18,1.30
2024,03,30,06,19,1.30
2024,03,30,06,20,1.30
2024,03,30,06,21,1.20
2024,03,30,06,22,1.20
2024,03,30,06,23,1.20
2024,03,30,06,24,1.20
2024,03,30,06,25,1.20
2024,03,30,06,26,1.20
2024,03,30,06,27,1.20
2024,03,30,06,28,1.20
2024,03,30,06,29,1.20
2024,03,30,06,30,1.20
2024,03,30,06,31,1.20
2024,03,30,06,32,1.20
2024,03,30,06,33,1.20
2024,03,30,06,34,1.20
2024,03,30,06,35,1.20
2024,03,30,06,36,1.20
2024,03,30,06,37,1.20
2024,03,30,06,38,1.20
2024,03,30,06,39,1.20
2024,03,30,06,40,1.20
2024,03,30,06,41,1.20
2024,03,30,06,42,1.20
2024,03,30,06,43,1.20
2024,03,30,06,44,1.20
2024,03,30,06,45,1.20
2024,03,30,06,46,1.20
2024,03,30,06,47,1.20
2024,03,30,06,48,1.20
2024,03,30,06,49,1.10
2024,03,30,06,50,1.10
2024,03,30,06,51,1.10
2024,03,30,06,52,1.10
2024,03,30,06,53,1.10
2024,03,30,06,54,1.10
2024,03,30,06,55,1.10
2024,03,30,06,56,1.10
2024,03,30,06,57,1.10
2024,03,30,06,58,1.10
2024,03,30,06,59,1.10
2024,03,30,07,00,1.10
2024,03,30,07,01,1.10
2024,03,30,07,02,1.10
2024,03,30,07,03,1.10
2024,03,30,07,04,1.10
2024,03,30,07,05,1.10
2024,03,30,07,06,1.10
2024,03,30,07,07,1.10
2024,03,30,07,08,1.10
2024,03,30,07,09,1.10
2024,03,30,07,10,1.10
2024,03,30,07,11,1.10
2024,03,30,07,12,1.10
2024,03,30,07,13,1.10
2024,03,30,07,14,1.10
2024,03,30,07,15,1.10
2024,03,30,07,16,1.10
2024,03,30,07,17,1.10
2024,03,30,07,18,1.00
2024,03,30,07,19,1.10
2024,03,30,07,20,1.10
2024,03,30,07,21,1.00
2024,03,30,07,22,1.00
2024,03,30,07,23,1.10
2024,03,30,07,24,1.10
2024,03,30,07,25,1.10
2024,03,30,07,26,1.10
2024,03,30,07,27,1.10
2024,03,30,07,28,1.10
2024,03,30,07,29,1.10
2024,03,30,07,30,1.10
2024,03,30,07,31,1.10
2024,03,30,07,32,1.10
2024,03,30,07,33,1.10
2024,03,30,07,34,1.10
2024,03,30,07,35,1.10
2024,03,30,07,36,1.10
2024,03,30,07,37,1.00
2024,03,30,07,38,1.10
2024,03,30,07,39,1.10
2024,03,30,07,40,1.10
2024,03,30,07,41,1.00
2024,03,30,07,42,1.00
2024,03,30,07,43,1.00
2024,03,30,07,44,1.00
2024,03,30,07,45,1.00
2024,03,30,07,46,1.00
2024,03,30,07,47,1.00
2024,03,30,07,48,1.00
2024,03,30,07,49,1.00
2024,03,30,07,50,1.10
2024,03,30,07,51,1.10
2024,03,30,07,52,1.10
2024,03,30,07,53,1.10
2024,03,30,07,54,1.10
2024,03,30,07,55,1.10
2024,03,30,07,56,1.10
2024,03,30,07,57,1.10
2024,03,30,07,58,1.10
2024,03,30,07,59,1.10
2024,03,30,08,00,1.10
2024,03,30,08,01,1.10
2024,03,30,08,02,1.10
2024,03,30,08,03,1.10
2024,03,30,08,04,1.10
2024,03,30,08,05,1.10
2024,03,30,08,06,1.10
2024,03,30,08,07,1.10
2024,03,30,08,08,1.10
2024,03,30,08,09,1.10
2024,03,30,08,10,1.10
2024,03,30,08,11,1.10
2024,03,30,08,12,1.10
2024,03,30,08,13,1.10
2024,03,30,08,14,1.10
2024,03,30,08,15,1.10
2024,03,30,08,16,1.10
2024,03,30,08,17,1.10
2024,03,30,08,18,1.10
2024,03,30,08,19,1.10
2024,03,30,08,20,1.10
2024,03,30,08,21,1.10
2024,03,30,08,22,1.10
2024,03,30,08,23,1.20
2024,03,30,08,24,1.20
2024,03,30,08,25,1.20
2024,03,30,08,26,1.20
2024,03,30,08,27,1.20
2024,03,30,08,28,1.30
2024,03,30,08,29,1.30
2024,03,30,08,30,1.30
2024,03,30,08,31,1.30
2024,03,30,08,32,1.30
2024,03,30,08,33,1.30
2024,03,30,08,34,1.30
2024,03,30,08,35,1.30
2024,03,30,08,36,1.30
2024,03,30,08,37,1.30
2024,03,30,08,38,1.30
2024,03,30,08,39,1.30
2024,03,30,08,40,1.40
2024,03,30,08,41,1.40
2024,03,30,08,42,1.40
2024,03,30,08,43,1.40
2024,03,30,08,44,1.40
2024,03,30,08,45,1.40
2024,03,30,08,46,1.40
2024,03,30,08,47,1.50
2024,03,30,08,48,1.50
2024,03,30,08,49,1.50
2024,03,30,08,50,1.50
2024,03,30,08,51,1.60
2024,03,30,08,52,1.60
2024,03,30,08,53,1.60
2024,03,30,08,54,1.60
2024,03,30,08,55,1.70
2024,03,30,08,56,1.70
2024,03,30,08,57,1.70
2024,03,30,08,58,1.70
2024,03,30,08,59,1.80
2024,03,30,09,00,1.80
2024,03,30,09,01,1.80
2024,03,30,09,02,1.80
2024,03,30,09,03,1.90
2024,03,30,09,04,1.90
2024,03,30,09,05,1.90
2024,03,30,09,06,2.00
2024,03,30,09,07,2.10
2024,03,30,09,08,2.10
2024,03,30,09,09,2.10
2024,03,30,09,10,2.20
2024,03,30,09,11,2.30
2024,03,30,09,12,2.30
2024,03,30,09,13,2.30
2024,03,30,09,14,2.40
2024,03,30,09,15,2.40
2024,03,30,09,16,2.40
2024,03,30,09,17,2.50
2024,03,30,09,18,2.60
2024,03,30,09,19,2.60
2024,03,30,09,20,2.60
2024,03,30,09,21,2.70
2024,03,30,09,22,2.70
2024,03,30,09,23,2.70
2024,03,30,09,24,2.80
2024,03,30,09,25,2.80
2024,03,30,09,26,2.90
2024,03,30,09,27,2.90
2024,03,30,09,28,3.00
2024,03,30,09,29,3.10
2024,03,30,09,30,3.10
2024,03,30,09,31,3.10
2024,03,30,09,32,3.20
2024,03,30,09,33,3.20
2024,03,30,09,34,3.30
2024,03,30,09,35,3.30
2024,03,30,09,36,3.40
2024,03,30,09,37,3.40
2024,03,30,09,38,3.50
2024,03,30,09,39,3.50
2024,03,30,09,40,3.60
2024,03,30,09,41,3.60
2024,03,30,09,42,3.60
2024,03,30,09,43,3.70
2024,03,30,09,44,3.70
2024,03,30,09,45,3.80
2024,03,30,09,46,3.80
2024,03,30,09,47,3.80
2024,03,30,09,48,3.90
2024,03,30,09,49,3.90
2024,03,30,09,50,3.90
2024,03,30,09,51,4.00
2024,03,30,09,52,4.00
2024,03,30,09,53,4.10
2024,03,30,09,54,4.10
2024,03,30,09,55,4.20
2024,03,30,09,56,4.20
2024,03,30,09,57,4.20
2024,03,30,09,58,4.20
2024,03,30,09,59,4.30
2024,03,30,10,00,4.30
2024,03,30,10,01,4.30
2024,03,30,10,02,4.30
2024,03,30,10,03,4.40
2024,03,30,10,04,4.40
2024,03,30,10,05,4.40
2024,03,30,10,06,4.50
2024,03,30,10,07,4.50
2024,03,30,10,08,4.60
2024,03,30,10,09,4.60
2024,03,30,10,10,4.60
2024,03,30,10,11,4.70
2024,03,30,10,12,4.70
2024,03,30,10,13,4.70
2024,03,30,10,14,4.80
2024,03,30,10,15,4.80
2024,03,30,10,16,4.80
2024,03,30,10,17,4.90
2024,03,30,10,18,4.90
2024,03,30,10,19,4.90
2024,03,30,10,20,5.00
2024,03,30,10,21,5.00
2024,03,30,10,22,5.10
2024,03,30,10,23,5.10
2024,03,30,10,24,5.10
2024,03,30,10,25,5.20
2024,03,30,10,26,5.20
2024,03,30,10,27,5.20
2024,03,30,10,28,5.30
2024,03,30,10,29,5.30
2024,03,30,10,30,5.30
2024,03,30,10,31,5.40
2024,03,30,10,32,5.40
2024,03,30,10,33,5.50
2024,03,30,10,34,5.50
2024,03,30,10,35,5.60
2024,03,30,10,36,5.60
2024,03,30,10,37,5.70
2024,03,30,10,38,5.70
2024,03,30,10,39,5.80
2024,03,30,10,40,5.90
2024,03,30,10,41,5.90
2024,03,30,10,42,5.90
2024,03,30,10,43,6.00
2024,03,30,10,44,6.10
2024,03,30,10,45,6.10
2024,03,30,10,46,6.20
2024,03,30,10,47,6.20
2024,03,30,10,48,6.30
2024,03,30,10,49,6.30
2024,03,30,10,50,6.40
2024,03,30,10,51,6.50
2024,03,30,10,52,6.60
2024,03,30,10,53,6.60
2024,03,30,10,54,6.70
2024,03,30,10,55,6.80
2024,03,30,10,56,6.90
2024,03,30,10,57,6.90
2024,03,30,10,58,7.10
2024,03,30,10,59,7.20
2024,03,30,11,00,7.30
2024,03,30,11,01,7.40
2024,03,30,11,02,7.50
2024,03,30,11,03,7.60
2024,03,30,11,04,7.60
2024,03,30,11,05,7.70
2024,03,30,11,06,7.70
2024,03,30,11,07,7.80
2024,03,30,11,08,7.90
2024,03,30,11,09,7.90
2024,03,30,11,10,8.00
2024,03,30,11,11,8.10
2024,03,30,11,12,8.10
2024,03,30,11,13,8.20
2024,03,30,11,14,8.30
2024,03,30,11,15,8.30
2024,03,30,11,16,8.30
2024,03,30,11,17,8.40
2024,03,30,11,18,8.40
2024,03,30,11,19,8.40
2024,03,30,11,20,8.50
2024,03,30,11,21,8.50
2024,03,30,11,22,8.60
2024,03,30,11,23,8.60
2024,03,30,11,24,8.70
2024,03,30,11,25,8.70
2024,03,30,11,26,8.80
2024,03,30,11,27,8.80
2024,03,30,11,28,8.90
2024,03,30,11,29,8.90
2024,03,30,11,30,8.90
2024,03,30,11,31,9.00
2024,03,30,11,32,9.00
2024,03,30,11,33,9.00
2024,03,30,11,34,9.10
2024,03,30,11,35,9.10
2024,03,30,11,36,9.10
2024,03,30,11,37,9.10
2024,03,30,11,38,9.10
2024,03,30,11,39,9.20
2024,03,30,11,40,9.20
2024,03,30,11,41,9.20
2024,03,30,11,42,9.20
2024,03,30,11,43,9.30
2024,03,30,11,44,9.30
2024,03,30,11,45,9.30
2024,03,30,11,46,9.30
2024,03,30,11,47,9.30
2024,03,30,11,48,9.30
2024,03,30,11,49,9.30
2024,03,30,11,50,9.30
2024,03,30,11,51,9.30
2024,03,30,11,52,9.30
2024,03,30,11,53,9.30
2024,03,30,11,54,9.40
2024,03,30,11,55,9.40
2024,03,30,11,56,9.40
2024,03,30,11,57,9.40
2024,03,30,11,58,9.50
2024,03,30,11,59,9.50
2024,03,30,12,00,9.50
2024,03,30,12,01,9.50
2024,03,30,12,02,9.60
2024,03,30,12,03,9.60
2024,03,30,12,04,9.60
2024,03,30,12,05,9.70
2024,03,30,12,06,9.70
2024,03,30,12,07,9.80
2024,03,30,12,08,9.80
2024,03,30,12,09,9.80
2024,03,30,12,10,9.90
2024,03,30,12,11,9.90
2024,03,30,12,12,9.90
2024,03,30,12,13,10.00
2024,03,30,12,14,10.00
2024,03,30,12,15,10.10
2024,03,30,12,16,10.10
2024,03,30,12,17,10.10
2024,03,30,12,18,10.20
2024,03,30,12,19,10.20
2024,03,30,12,20,10.30
2024,03,30,12,21,10.30
2024,03,30,12,22,10.30
2024,03,30,12,23,10.30
2024,03,30,12,24,10.40
2024,03,30,12,25,10.40
2024,03,30,12,26,10.50
2024,03,30,12,27,10.50
2024,03,30,12,28,10.60
2024,03,30,12,29,10.60
2024,03,30,12,30,10.60
2024,03,30,12,31,10.70
2024,03,30,12,32,10.70
2024,03,30,12,33,10.70
2024,03,30,12,34,10.80
2024,03,30,12,35,10.80
2024,03,30,12,36,10.80
2024,03,30,12,37,10.80
2024,03,30,12,38,10.80
2024,03,30,12,39,10.80
2024,03,30,12,40,10.80
2024,03,30,12,41,10.80
2024,03,30,12,42,10.90
2024,03,30,12,43,10.90
2024,03,30,12,44,10.90
2024,03,30,12,45,10.90
2024,03,30,12,46,10.90
2024,03,30,12,47,10.90
2024,03,30,12,48,11.00
2024,03,30,12,49,11.00
2024,03,30,12,50,11.10
2024,03,30,12,51,11.10
2024,03,30,12,52,11.10
2024,03,30,12,53,11.10
2024,03,30,12,54,11.10
2024,03,30,12,55,11.10
2024,03,30,12,56,11.10
2024,03,30,12,57,11.10
2024,03,30,12,58,11.10
2024,03,30,12,59,11.10
2024,03,30,13,00,11.10
2024,03,30,13,01,11.10
2024,03,30,13,02,11.10
2024,03,30,13,03,11.10
2024,03,30,13,04,11.10
2024,03,30,13,05,11.10
2024,03,30,13,06,11.10
2024,03,30,13,07,11.10
2024,03,30,13,08,11.10
2024,03,30,13,09,11.10
2024,03,30,13,10,11.20
2024,03,30,13,11,11.20
2024,03,30,13,12,11.20
2024,03,30,13,13,11.20
2024,03,30,13,14,11.20
2024,03,30,13,15,11.20
2024,03,30,13,16,11.20
2024,03,30,13,17,11.30
2024,03,30,13,18,11.20
2024,03,30,13,19,11.30
2024,03,30,13,20,11.30
2024,03,30,13,21,11.30
2024,03,30,13,22,11.30
2024,03,30,13,23,11.30
2024,03,30,13,24,11.30
2024,03,30,13,25,11.30
2024,03,30,13,26,11.30
2024,03,30,13,27,11.40
2024,03,30,13,28,11.40
2024,03,30,13,29,11.40
2024,03,30,13,30,11.40
2024,03,30,13,31,11.40
2024,03,30,13,32,11.40
2024,03,30,13,33,11.40
2024,03,30,13,34,11.40
2024,03,30,13,35,11.50
2024,03,30,13,36,11.50
2024,03,30,13,37,11.50
2024,03,30,13,38,11.50
2024,03,30,13,39,11.60
2024,03,30,13,40,11.60
2024,03,30,13,41,11.70
2024,03,30,13,42,11.70
2024,03,30,13,43,11.70
2024,03,30,13,44,11.80
2024,03,30,13,45,11.80
2024,03,30,13,46,11.80
2024,03,30,13,47,11.90
2024,03,30,13,48,11.90
2024,03,30,13,49,11.90
2024,03,30,13,50,11.90
2024,03,30,13,51,11.90
2024,03,30,13,52,11.90
2024,03,30,13,53,12.00
2024,03,30,13,54,12.00
2024,03,30,13,55,12.10
2024,03,30,13,56,12.10
2024,03,30,13,57,12.10
2024,03,30,13,58,12.10
2024,03,30,13,59,12.10
2024,03,30,14,00,12.20
2024,03,30,14,01,12.20
2024,03,30,14,02,12.20
2024,03,30,14,03,12.30
2024,03,30,14,04,12.30
2024,03,30,14,05,12.30
2024,03,30,14,06,12.30
2024,03,30,14,07,12.30
2024,03,30,14,08,12.30
2024,03,30,14,09,12.30
2024,03,30,14,10,12.30
2024,03,30,14,11,12.30
2024,03,30,14,12,12.30
2024,03,30,14,13,12.30
2024,03,30,14,14,12.30
2024,03,30,14,15,12.30
2024,03,30,14,16,12.30
2024,03,30,14,17,12.40
2024,03,30,14,18,12.40
2024,03,30,14,19,12.40
2024,03,30,14,20,12.40
2024,03,30,14,21,12.40
2024,03,30,14,22,12.40
2024,03,30,14,23,12.40
2024,03,30,14,24,12.40
2024,03,30,14,25,12.40
2024,03,30,14,26,12.40
2024,03,30,14,27,12.40
2024,03,30,14,28,12.40
2024,03,30,14,29,12.40
2024,03,30,14,30,12.40
2024,03,30,14,31,12.30
2024,03,30,14,32,12.30
2024,03,30,14,33,12.30
2024,03,30,14,34,12.30
2024,03,30,14,35,12.20
2024,03,30,14,36,12.20
2024,03,30,14,37,12.20
2024,03,30,14,38,12.20
2024,03,30,14,39,12.10
2024,03,30,14,40,12.10
2024,03,30,14,41,12.10
2024,03,30,14,42,12.10
2024,03,30,14,43,12.10
2024,03,30,14,44,12.10
2024,03,30,14,45,12.10
2024,03,30,14,46,12.10
2024,03,30,14,47,12.10
2024,03,30,14,48,12.10
2024,03,30,14,49,12.10
2024,03,30,14,50,12.00
2024,03,30,14,51,12.00
2024,03,30,14,52,12.00
2024,03,30,14,53,12.00
2024,03,30,14,54,12.00
2024,03,30,14,55,12.00
2024,03,30,14,56,12.00
2024,03,30,14,57,12.00
2024,03,30,14,58,12.00
2024,03,30,14,59,12.00
2024,03,30,15,00,12.00
2024,03,30,15,01,12.00
2024,03,30,15,02,12.00
2024,03,30,15,03,12.00
2024,03,30,15,04,12.00
2024,03,30,15,05,12.00
2024,03,30,15,06,12.00
2024,03,30,15,07,12.00
2024,03,30,15,08,12.00
2024,03,30,15,09,11.90
2024,03,30,15,10,11.90
2024,03,30,15,11,11.90
2024,03,30,15,12,11.90
2024,03,30,15,13,11.90
2024,03,30,15,14,11.90
2024,03,30,15,15,11.90
2024,03,30,15,16,11.90
2024,03,30,15,17,11.90
2024,03,30,15,18,11.90
2024,03,30,15,19,11.90
2024,03,30,15,20,12.00
2024,03,30,15,21,12.00
2024,03,30,15,22,12.00
2024,03,30,15,23,12.00
2024,03,30,15,24,12.00
2024,03,30,15,25,12.00
2024,03,30,15,26,12.00
2024,03,30,15,27,12.00
2024,03,30,15,28,12.00
2024,03,30,15,29,12.10
2024,03,30,15,30,12.10
2024,03,30,15,31,12.10
2024,03,30,15,32,12.10
2024,03,30,15,33,12.10
2024,03,30,15,34,12.00
2024,03,30,15,35,12.00
2024,03,30,15,36,12.00
2024,03,30,15,37,12.00
2024,03,30,15,38,12.00
2024,03,30,15,39,12.00
2024,03,30,15,40,12.00
2024,03,30,15,41,12.00
2024,03,30,15,42,12.00
2024,03,30,15,43,12.00
2024,03,30,15,44,12.00
2024,03,30,15,45,12.00
2024,03,30,15,46,12.00
2024,03,30,15,47,12.00
2024,03,30,15,48,12.00
2024,03,30,15,49,12.00
2024,03,30,15,50,12.00
2024,03,30,15,51,12.00
2024,03,30,15,52,11.90
2024,03,30,15,53,11.90
2024,03,30,15,54,11.90
2024,03,30,15,55,11.90
2024,03,30,15,56,11.90
2024,03,30,15,57,11.90
2024,03,30,15,58,11.90
2024,03,30,15,59,11.90
2024,03,30,16,00,11.90
2024,03,30,16,01,12.00
2024,03,30,16,02,12.00
2024,03,30,16,03,12.00
2024,03,30,16,04,12.00
2024,03,30,16,05,12.00
2024,03,30,16,06,12.00
2024,03,30,16,07,12.00
2024,03,30,16,08,12.00
2024,03,30,16,09,12.00
2024,03,30,16,10,12.10
2024,03,30,16,11,12.10
2024,03,30,16,12,12.10
2024,03,30,16,13,12.10
2024,03,30,16,14,12.10
2024,03,30,16,15,12.10
2024,03,30,16,16,12.10
2024,03,30,16,17,12.20
2024,03,30,16,18,12.20
2024,03,30,16,19,12.20
2024,03,30,16,20,12.20
2024,03,30,16,21,12.20
2024,03,30,16,22,12.20
2024,03,30,16,23,12.20
2024,03,30,16,24,12.20
2024,03,30,16,25,12.30
2024,03,30,16,26,12.30
2024,03,30,16,27,12.30
2024,03,30,16,28,12.30
2024,03,30,16,29,12.40
2024,03,30,16,30,12.50
2024,03,30,16,31,12.60
2024,03,30,16,32,12.60
2024,03,30,16,33,12.70
2024,03,30,16,34,12.80
2024,03,30,16,35,12.80
2024,03,30,16,36,12.80
2024,03,30,16,37,12.90
2024,03,30,16,38,12.90
2024,03,30,16,39,12.90
2024,03,30,16,40,13.00
2024,03,30,16,41,12.90
2024,03,30,16,42,12.90
2024,03,30,16,43,12.80
2024,03,30,16,44,12.80
2024,03,30,16,45,12.80
2024,03,30,16,46,12.80
2024,03,30,16,47,12.80
2024,03,30,16,48,12.80
2024,03,30,16,49,12.80
2024,03,30,16,50,12.80
2024,03,30,16,51,12.80
2024,03,30,16,52,12.80
2024,03,30,16,53,12.80
2024,03,30,16,54,12.80
2024,03,30,16,55,12.80
2024,03,30,16,56,12.70
2024,03,30,16,57,12.70
2024,03,30,16,58,12.70
2024,03,30,16,59,12.60
2024,03,30,17,00,12.60
2024,03,30,17,01,12.60
2024,03,30,17,02,12.60
2024,03,30,17,03,12.60
2024,03,30,17,04,12.60
2024,03,30,17,05,12.60
2024,03,30,17,06,12.60
2024,03,30,17,07,12.60
2024,03,30,17,08,12.60
2024,03,30,17,09,12.60
2024,03,30,17,10,12.60
2024,03,30,17,11,12.50
2024,03,30,17,12,12.40
2024,03,30,17,13,12.40
2024,03,30,17,14,12.30
2024,03,30,17,15,12.20
2024,03,30,17,16,12.20
2024,03,30,17,17,12.10
2024,03,30,17,18,12.00
2024,03,30,17,19,11.90
2024,03,30,17,20,11.90
2024,03,30,17,21,11.80
2024,03,30,17,22,11.80
2024,03,30,17,23,11.70
2024,03,30,17,24,11.70
2024,03,30,17,25,11.60
2024,03,30,17,26,11.60
2024,03,30,17,27,11.50
2024,03,30,17,28,11.50
2024,03,30,17,29,11.50
2024,03,30,17,30,11.50
2024,03,30,17,31,11.40
2024,03,30,17,32,11.40
2024,03,30,17,33,11.40
2024,03,30,17,34,11.50
2024,03,30,17,35,11.50
2024,03,30,17,36,11.50
2024,03,30,17,37,11.50
2024,03,30,17,38,11.50
2024,03,30,17,39,11.60
2024,03,30,17,40,11.60
2024,03,30,17,41,11.60
2024,03,30,17,42,11.60
2024,03,30,17,43,11.70
2024,03,30,17,44,11.80
2024,03,30,17,45,11.80
2024,03,30,17,46,11.80
2024,03,30,17,47,11.90
2024,03,30,17,48,11.90
2024,03,30,17,49,11.90
2024,03,30,17,50,11.90
2024,03,30,17,51,11.90